FW3047 Weather Reports


time (UTC)temp
C
wind
direction
speed
KPH
gust
KPH
rain 1hr
cm
rain 24hr
cm
rain mn
cm
humidity
%
barometer
mb
20260504234531 26 246 3.2 19.3 0.00 0.00 0.00 35 1001.6
20260504233031 26 259 6.4 19.3 0.00 0.00 0.00 34 1001.6
20260504231529 26 240 11.3 24.1 0.00 0.00 0.00 33 1001.6
20260504230029 26 254 12.9 22.5 0.00 0.00 0.00 33 1001.6
20260504224535 27 247 16.1 22.5 0.00 0.00 0.00 33 1001.6
20260504223027 27 233 9.7 22.5 0.00 0.00 0.00 30 1001.6
20260504221526 28 269 8.0 20.9 0.00 0.00 0.00 26 1001.6
20260504220025 28 235 8.0 20.9 0.00 0.00 0.00 26 1001.7
20260504214526 28 260 14.5 25.7 0.00 0.00 0.00 25 1001.8
20260504213023 28 273 6.4 19.3 0.00 0.00 0.00 26 1002.0
20260504211521 28 276 9.7 24.1 0.00 0.00 0.00 29 1001.9
20260504210031 28 252 4.8 17.7 0.00 0.00 0.00 28 1002.0
20260504204527 27 247 12.9 24.1 0.00 0.00 0.00 29 1002.1
20260504203015 27 240 6.4 24.1 0.00 0.00 0.00 29 1002.3
20260504201509 27 275 9.7 29.0 0.00 0.00 0.00 31 1002.4
20260504200008 27 204 9.7 22.5 0.00 0.00 0.00 31 1002.5
20260504194507 26 259 12.9 29.0 0.00 0.00 0.00 30 1002.6
20260504193005 26 232 12.9 25.7 0.00 0.00 0.00 33 1002.6
20260504191502 26 245 12.9 30.6 0.00 0.00 0.00 32 1002.6
20260504190002 26 193 11.3 20.9 0.00 0.00 0.00 33 1002.6
20260504184602 26 266 8.0 20.9 0.00 0.00 0.00 33 1002.7
20260504183103 25 238 14.5 25.7 0.00 0.00 0.00 34 1002.9
20260504181552 25 232 11.3 27.4 0.00 0.00 0.00 35 1003.0
20260504180105 25 209 12.9 20.9 0.00 0.00 0.00 34 1003.0
20260504174548 23 261 16.1 22.5 0.00 0.00 0.00 35 1003.3
20260504173058 23 273 11.3 30.6 0.00 0.00 0.00 35 1003.3
20260504171545 23 267 6.4 22.5 0.00 0.00 0.00 36 1003.4
20260504081536 17 225 1.6 4.8 0.00 0.00 0.00 43 1006.1
20260504050010 20 149 11.3 17.7 0.00 0.00 0.00 39 1007.6
20260504044514 21 24 11.3 30.6 0.00 0.00 0.00 35 1009.4
20260504043013 20 350 6.4 17.7 0.00 0.00 0.00 37 1009.5
20260504041527 21 20 1.6 8.0 0.00 0.00 0.00 36 1008.3
20260504040010 21 100 8.0 22.5 0.00 0.00 0.00 35 1008.5
20260504034509 19 163 6.4 12.9 0.00 0.00 0.00 40 1008.8
20260504033006 19 95 4.8 9.7 0.00 0.00 0.00 42 1009.4
20260504031505 20 97 3.2 6.4 0.00 0.00 0.00 38 1009.2
20260504030004 21 97 1.6 9.7 0.00 0.00 0.00 36 1008.9
20260504024504 21 82 3.2 6.4 0.00 0.00 0.00 36 1008.9
20260504023004 20 55 0.0 4.8 0.00 0.00 0.00 37 1009.0
20260504021503 20 55 0.0 1.6 0.00 0.00 0.00 38 1009.0
20260504020006 21 55 1.6 4.8 0.00 0.00 0.00 37 1008.7
20260504014501 21 55 0.0 1.6 0.00 0.00 0.00 37 1008.7
20260504013133 22 55 0.0 3.2 0.00 0.00 0.00 37 1008.5
20260504011559 22 55 1.6 3.2 0.00 0.00 0.00 35 1008.6
20260504010100 23 55 0.0 3.2 0.00 0.00 0.00 32 1008.7
20260504004557 23 55 0.0 4.8 0.00 0.00 0.00 30 1008.7
20260504003056 24 55 1.6 4.8 0.00 0.00 0.00 28 1008.8
20260504001555 25 44 1.6 8.0 0.00 0.00 0.00 27 1008.9
20260504000055 26 39 3.2 9.7 0.00 0.00 0.00 26 1009.1